contact:dominique.lefevre@mio.osupytheas.fr, maurice.libes@osupytheas.fr, didier.mallarino@osupytheas.fr
Project:EMSO http://www.emso-fr.org/EMSO-France
Depth: 2436.0 m
Title:EMSO Ligure Ouest : Data MII capteur AQUADOPP
Date,Latitude,Longitude,X_East,Y_North,Z_Up,Amplitude_X,Amplitude_Y,Amplitude_Z,Batterie,SoundSpeed,Heading,Pitch,Roll,Pressure,TIS,Speed,Direction
, degrees North, degrees East, m.s-1, m.s-1,m.s-1, 1, 1, 1, Volt, m.s-1, degree, degree, degree, dbar, degree_C, m.s-1, degree
2023-05-13T00:04:03,42.805,6.029,0.03,0.002,-0.022,102.0,101.0,100.0,13.4,1505.2,340.2,-0.8,1.8,2471.511,13.28,0.03,86.2
2023-05-13T00:07:03,42.805,6.029,0.016,0.019,-0.03,101.0,101.0,100.0,13.4,1505.2,326.5,-0.8,1.8,2471.497,13.28,0.024,40.1
2023-05-13T00:10:03,42.805,6.029,0.018,0.022,0.006,101.0,100.0,100.0,13.4,1505.2,328.4,-0.8,1.8,2471.5,13.29,0.028,39.3
2023-05-13T00:13:03,42.805,6.029,0.011,0.015,0.001,101.0,101.0,100.0,13.4,1505.2,331.2,-0.8,1.8,2471.475,13.29,0.018,36.3
2023-05-13T00:16:03,42.805,6.029,0.041,-0.001,-0.047,101.0,101.0,101.0,13.4,1505.2,333.4,-0.8,1.8,2471.504,13.29,0.041,91.4
2023-05-13T00:19:03,42.805,6.029,-0.001,0.02,0.012,102.0,100.0,101.0,13.4,1505.2,323.3,-0.8,1.8,2471.451,13.29,0.02,357.1
2023-05-13T00:22:03,42.805,6.029,0.019,0.006,-0.013,102.0,100.0,101.0,13.4,1505.2,324.1,-0.8,1.9,2471.472,13.29,0.019,72.5
2023-05-13T00:25:03,42.805,6.029,0.02,0.007,-0.017,101.0,101.0,100.0,13.4,1505.2,339.0,-0.8,1.9,2471.452,13.29,0.021,70.7
2023-05-13T00:28:03,42.805,6.029,0.0,0.011,-0.005,100.0,100.0,101.0,13.4,1505.2,335.4,-0.8,1.8,2471.484,13.29,0.011,0.0
2023-05-13T00:31:03,42.805,6.029,0.031,0.018,-0.014,101.0,101.0,100.0,13.4,1505.2,327.3,-0.8,1.8,2471.479,13.29,0.035,59.9
2023-05-13T00:34:03,42.805,6.029,0.012,-0.003,-0.033,100.0,100.0,102.0,13.4,1505.2,335.4,-0.8,1.8,2471.449,13.29,0.012,104.0
2023-05-13T00:37:03,42.805,6.029,0.027,0.006,-0.001,100.0,102.0,100.0,13.4,1505.2,336.6,-0.8,1.8,2471.472,13.29,0.027,77.5
2023-05-13T00:40:03,42.805,6.029,0.016,0.006,-0.011,102.0,101.0,101.0,13.4,1505.2,338.8,-0.8,1.8,2471.477,13.29,0.017,69.4
2023-05-13T00:43:03,42.805,6.029,0.036,0.032,0.005,101.0,101.0,100.0,13.4,1505.2,337.8,-0.8,1.8,2471.425,13.29,0.048,48.4
2023-05-13T00:46:03,42.805,6.029,0.02,0.0,-0.012,101.0,101.0,101.0,13.4,1505.2,328.8,-0.8,1.8,2471.469,13.29,0.02,90.0
2023-05-13T00:49:03,42.805,6.029,0.035,0.017,0.006,102.0,99.0,99.0,13.4,1505.2,323.2,-0.7,1.8,2471.469,13.29,0.038,64.1
2023-05-13T00:52:03,42.805,6.029,0.043,0.02,0.021,102.0,101.0,101.0,13.4,1505.2,327.8,-0.7,1.8,2471.478,13.29,0.047,65.1
2023-05-13T00:55:03,42.805,6.029,0.039,0.022,0.004,101.0,101.0,100.0,13.4,1505.2,320.0,-0.8,1.8,2471.466,13.29,0.044,60.6
2023-05-13T00:58:03,42.805,6.029,0.022,0.009,-0.018,99.0,100.0,101.0,13.3,1505.2,337.2,-0.8,1.8,2471.488,13.29,0.023,67.8
2023-05-13T01:04:03,42.805,6.029,0.033,-0.014,-0.06,102.0,104.0,102.0,13.4,1505.2,326.8,-0.8,1.8,2471.512,13.28,0.035,113.0
2023-05-13T01:07:03,42.805,6.029,0.007,0.009,-0.046,100.0,102.0,100.0,13.3,1505.2,341.2,-0.8,1.8,2471.502,13.28,0.011,37.9
2023-05-13T01:10:03,42.805,6.029,-0.005,0.029,-0.002,100.0,102.0,100.0,13.3,1505.2,340.2,-0.8,1.8,2471.474,13.28,0.029,350.2
2023-05-13T01:13:03,42.805,6.029,0.014,0.036,-0.021,101.0,102.0,99.0,13.3,1505.2,327.0,-0.8,1.9,2471.498,13.29,0.038,21.2
2023-05-13T01:16:03,42.805,6.029,0.021,0.023,-0.027,101.0,102.0,100.0,13.4,1505.2,344.2,-0.8,1.8,2471.457,13.29,0.031,42.4
2023-05-13T01:19:07,42.805,6.029,0.023,0.011,0.014,101.0,101.0,100.0,13.4,1505.2,327.9,-0.8,1.8,2471.444,13.29,0.025,64.4
2023-05-13T01:22:03,42.805,6.029,0.027,-0.002,-0.025,102.0,101.0,101.0,13.4,1505.2,341.2,-0.7,1.8,2471.479,13.29,0.027,94.2
2023-05-13T01:25:03,42.805,6.029,0.018,0.025,-0.032,101.0,102.0,100.0,13.3,1505.2,335.4,-0.8,1.8,2471.486,13.29,0.03,35.8
2023-05-13T01:28:03,42.805,6.029,0.022,0.011,-0.028,101.0,101.0,100.0,13.4,1505.2,344.7,-0.8,1.8,2471.468,13.29,0.024,63.4
2023-05-13T01:31:03,42.805,6.029,0.011,0.01,-0.005,102.0,100.0,100.0,13.3,1505.2,332.1,-0.8,1.8,2471.445,13.29,0.014,47.7
2023-05-13T01:34:03,42.805,6.029,0.023,0.016,-0.005,101.0,101.0,100.0,13.4,1505.2,332.2,-0.8,1.8,2471.451,13.29,0.028,55.2
2023-05-13T01:37:03,42.805,6.029,0.036,0.019,-0.013,103.0,101.0,101.0,13.4,1505.2,330.1,-0.7,1.8,2471.456,13.29,0.04,62.2
2023-05-13T01:40:03,42.805,6.029,-0.009,0.004,-0.051,102.0,101.0,100.0,13.4,1505.2,320.5,-0.8,1.8,2471.499,13.29,0.009,294.0
2023-05-13T01:43:03,42.805,6.029,0.038,-0.004,-0.006,101.0,100.0,100.0,13.4,1505.2,335.3,-0.7,1.8,2471.476,13.29,0.038,96.0
2023-05-13T01:46:03,42.805,6.029,0.013,-0.007,0.001,101.0,102.0,101.0,13.4,1505.2,321.7,-0.8,1.8,2471.471,13.29,0.014,118.3
2023-05-13T01:49:03,42.805,6.029,0.037,0.011,-0.012,101.0,100.0,101.0,13.3,1505.2,322.7,-0.8,1.8,2471.45,13.29,0.038,73.4
2023-05-13T01:52:03,42.805,6.029,0.024,0.023,-0.001,100.0,103.0,101.0,13.4,1505.2,333.9,-0.8,1.8,2471.468,13.29,0.033,46.2
2023-05-13T01:55:03,42.805,6.029,0.017,0.009,-0.036,101.0,101.0,101.0,13.4,1505.2,319.4,-0.8,1.8,2471.464,13.29,0.019,62.1
2023-05-13T01:58:03,42.805,6.029,0.025,0.025,0.002,101.0,101.0,101.0,13.4,1505.2,329.4,-0.8,1.8,2471.508,13.29,0.035,45.0
2023-05-13T02:04:03,42.805,6.029,-0.003,0.025,-0.02,100.0,102.0,100.0,13.4,1505.2,320.1,-0.8,1.8,2471.52,13.28,0.025,353.2
2023-05-13T02:07:03,42.805,6.029,0.032,0.007,0.015,101.0,101.0,100.0,13.3,1505.2,331.7,-0.8,1.8,2471.513,13.28,0.032,77.7
2023-05-13T02:10:03,42.805,6.029,0.013,0.017,0.012,101.0,102.0,100.0,13.4,1505.2,326.3,-0.8,1.8,2471.526,13.29,0.021,37.4
2023-05-13T02:13:03,42.805,6.029,0.027,0.014,-0.031,103.0,100.0,101.0,13.4,1505.2,332.4,-0.7,1.8,2471.46,13.29,0.03,62.6
2023-05-13T02:16:03,42.805,6.029,0.011,0.016,-0.049,101.0,102.0,101.0,13.4,1505.2,321.2,-0.7,1.9,2471.468,13.29,0.019,34.5
2023-05-13T02:19:03,42.805,6.029,0.037,0.0,-0.016,101.0,101.0,100.0,13.4,1505.2,325.0,-0.8,1.8,2471.45,13.29,0.037,90.0
2023-05-13T02:22:03,42.805,6.029,0.021,0.014,-0.02,102.0,102.0,100.0,13.3,1505.2,334.4,-0.8,1.8,2471.498,13.29,0.025,56.3
2023-05-13T02:25:03,42.805,6.029,0.021,0.006,-0.028,102.0,102.0,101.0,13.4,1505.2,326.3,-0.8,1.8,2471.436,13.29,0.021,74.1
2023-05-13T02:28:03,42.805,6.029,-0.006,0.034,0.015,101.0,104.0,99.0,13.4,1505.2,335.3,-0.8,1.8,2471.503,13.29,0.034,350.0
2023-05-13T02:31:03,42.805,6.029,0.04,0.024,0.016,102.0,101.0,100.0,13.3,1505.2,331.2,-0.8,1.8,2471.453,13.29,0.046,59.0
2023-05-13T02:34:03,42.805,6.029,0.018,0.009,-0.011,103.0,101.0,101.0,13.4,1505.2,335.4,-0.8,1.8,2471.469,13.29,0.02,63.4
2023-05-13T02:37:03,42.805,6.029,0.034,0.024,-0.012,101.0,101.0,100.0,13.4,1505.2,333.4,-0.8,1.8,2471.438,13.29,0.041,54.8
2023-05-13T02:40:03,42.805,6.029,0.023,0.018,-0.049,102.0,101.0,100.0,13.3,1505.2,325.7,-0.8,1.8,2471.476,13.29,0.029,52.0
2023-05-13T02:43:03,42.805,6.029,0.016,0.007,-0.03,101.0,101.0,101.0,13.4,1505.2,327.1,-0.8,1.8,2471.455,13.29,0.017,66.4
2023-05-13T02:46:03,42.805,6.029,0.023,0.007,-0.001,100.0,100.0,101.0,13.3,1505.2,332.9,-0.8,1.8,2471.46,13.29,0.024,73.1
2023-05-13T02:49:03,42.805,6.029,0.025,0.002,-0.03,101.0,102.0,101.0,13.4,1505.2,341.2,-0.8,1.8,2471.428,13.29,0.025,85.4
2023-05-13T02:52:03,42.805,6.029,0.047,0.017,-0.003,102.0,101.0,101.0,13.3,1505.2,324.5,-0.7,1.8,2471.472,13.29,0.049,70.1
2023-05-13T02:55:03,42.805,6.029,0.015,0.008,-0.025,101.0,102.0,100.0,13.3,1505.2,329.2,-0.8,1.8,2471.491,13.29,0.017,61.9
2023-05-13T02:58:03,42.805,6.029,0.01,0.003,-0.002,101.0,102.0,101.0,13.3,1505.2,333.8,-0.8,1.8,2471.496,13.29,0.01,73.3
2023-05-13T03:04:03,42.805,6.029,0.014,0.0,0.007,101.0,101.0,101.0,13.4,1505.2,344.9,-0.8,1.8,2471.497,13.28,0.014,90.0
2023-05-13T03:07:03,42.805,6.029,0.018,0.03,-0.007,102.0,101.0,100.0,13.4,1505.2,323.3,-0.7,1.8,2471.508,13.28,0.034,31.0
2023-05-13T03:10:03,42.805,6.029,0.024,-0.007,-0.037,102.0,101.0,101.0,13.4,1505.2,347.5,-0.8,1.8,2471.475,13.29,0.025,106.3
2023-05-13T03:13:03,42.805,6.029,0.013,0.015,-0.021,102.0,102.0,101.0,13.4,1505.2,322.1,-0.8,1.8,2471.49,13.29,0.019,40.9
2023-05-13T03:16:03,42.805,6.029,0.031,0.014,-0.034,101.0,102.0,101.0,13.3,1505.2,334.5,-0.7,1.8,2471.515,13.29,0.034,65.7
2023-05-13T03:19:03,42.805,6.029,0.018,0.017,-0.004,100.0,104.0,101.0,13.4,1505.2,325.0,-0.8,1.8,2471.492,13.29,0.024,46.6
2023-05-13T03:22:03,42.805,6.029,0.008,0.011,-0.031,100.0,102.0,100.0,13.4,1505.2,323.3,-0.8,1.8,2471.506,13.29,0.013,36.0
2023-05-13T03:25:03,42.805,6.029,0.016,0.013,-0.041,101.0,102.0,101.0,13.4,1505.2,322.9,-0.8,1.8,2471.504,13.29,0.02,50.9
2023-05-13T03:28:03,42.805,6.029,0.04,0.001,-0.011,101.0,101.0,101.0,13.4,1505.2,336.6,-0.8,1.8,2471.477,13.29,0.04,88.6
2023-05-13T03:31:03,42.805,6.029,0.021,0.029,-0.017,101.0,101.0,100.0,13.4,1505.2,338.5,-0.7,1.8,2471.451,13.29,0.035,35.9
2023-05-13T03:34:03,42.805,6.029,-0.003,0.02,-0.021,101.0,101.0,101.0,13.4,1505.2,328.2,-0.7,1.8,2471.454,13.29,0.02,351.5
2023-05-13T03:37:03,42.805,6.029,0.029,0.024,-0.017,102.0,101.0,100.0,13.4,1505.2,325.2,-0.8,1.8,2471.463,13.29,0.037,50.4
2023-05-13T03:40:03,42.805,6.029,0.011,0.023,-0.022,101.0,101.0,100.0,13.4,1505.2,334.2,-0.8,1.8,2471.453,13.29,0.025,25.6
2023-05-13T03:43:03,42.805,6.029,0.021,0.025,-0.016,102.0,100.0,100.0,13.4,1505.2,323.8,-0.8,1.8,2471.456,13.29,0.032,40.0
2023-05-13T03:46:03,42.805,6.029,0.028,0.023,-0.005,101.0,101.0,100.0,13.4,1505.2,328.8,-0.8,1.9,2471.435,13.29,0.036,50.6
2023-05-13T03:49:03,42.805,6.029,0.041,-0.005,0.005,99.0,104.0,100.0,13.4,1505.2,334.2,-0.8,1.8,2471.424,13.29,0.041,97.0
2023-05-13T03:52:03,42.805,6.029,0.022,0.021,-0.029,101.0,101.0,101.0,13.4,1505.2,327.5,-0.8,1.8,2471.452,13.29,0.03,46.3
2023-05-13T03:55:03,42.805,6.029,0.033,0.025,0.018,101.0,101.0,100.0,13.3,1505.2,335.4,-0.8,1.8,2471.482,13.29,0.041,52.9
2023-05-13T03:58:03,42.805,6.029,0.014,0.007,-0.043,100.0,101.0,101.0,13.4,1505.2,344.8,-0.8,1.8,2471.488,13.29,0.015,63.4
2023-05-13T04:04:03,42.805,6.029,0.013,0.026,0.005,101.0,101.0,101.0,13.4,1505.2,320.3,-0.7,1.8,2471.476,13.28,0.029,26.6
2023-05-13T04:07:03,42.805,6.029,0.015,0.029,0.015,102.0,102.0,100.0,13.3,1505.2,333.4,-0.7,1.8,2471.484,13.28,0.032,27.4
2023-05-13T04:10:03,42.805,6.029,0.02,0.014,-0.04,101.0,102.0,100.0,13.3,1505.2,332.9,-0.8,1.8,2471.496,13.28,0.024,55.0
2023-05-13T04:13:03,42.805,6.029,0.013,0.009,-0.061,100.0,102.0,100.0,13.4,1505.2,319.6,-0.8,1.8,2471.466,13.29,0.015,55.3
2023-05-13T04:16:03,42.805,6.029,0.006,0.01,-0.013,101.0,102.0,100.0,13.4,1505.2,328.8,-0.8,1.8,2471.479,13.29,0.011,31.0
2023-05-13T04:19:03,42.805,6.029,0.032,0.017,0.006,101.0,101.0,100.0,13.4,1505.2,341.9,-0.8,1.8,2471.425,13.29,0.036,62.0
2023-05-13T04:22:03,42.805,6.029,0.039,0.008,-0.031,101.0,101.0,100.0,13.4,1505.2,342.5,-0.7,1.8,2471.478,13.29,0.039,78.4
2023-05-13T04:25:03,42.805,6.029,0.022,0.0,-0.037,102.0,102.0,101.0,13.4,1505.2,323.5,-0.8,1.8,2471.444,13.29,0.022,90.0
2023-05-13T04:28:03,42.805,6.029,-0.006,0.0,-0.034,102.0,101.0,100.0,13.4,1505.2,333.4,-0.7,1.8,2471.486,13.29,0.006,270.0
2023-05-13T04:31:03,42.805,6.029,0.031,0.019,-0.04,101.0,102.0,101.0,13.4,1505.2,321.7,-0.8,1.8,2471.427,13.29,0.036,58.5
2023-05-13T04:34:03,42.805,6.029,0.013,0.016,-0.007,102.0,104.0,101.0,13.4,1505.2,344.8,-0.8,1.8,2471.434,13.29,0.02,39.1
2023-05-13T04:37:03,42.805,6.029,0.015,0.011,-0.051,102.0,101.0,100.0,13.4,1505.2,327.5,-0.8,1.8,2471.457,13.29,0.018,53.7
2023-05-13T04:40:03,42.805,6.029,0.03,0.013,-0.039,102.0,100.0,100.0,13.3,1505.2,341.2,-0.8,1.8,2471.419,13.29,0.032,66.6
2023-05-13T04:43:03,42.805,6.029,0.017,-0.017,-0.035,101.0,101.0,101.0,13.4,1505.2,347.5,-0.7,1.8,2471.408,13.29,0.024,135.0
2023-05-13T04:46:03,42.805,6.029,0.015,0.038,0.006,101.0,100.0,101.0,13.3,1505.2,319.9,-0.8,1.8,2471.43,13.29,0.04,21.5
2023-05-13T04:49:03,42.805,6.029,0.004,0.015,-0.001,101.0,101.0,100.0,13.3,1505.2,324.5,-0.8,1.8,2471.464,13.29,0.015,14.9
2023-05-13T04:52:03,42.805,6.029,0.016,0.0,-0.032,103.0,101.0,102.0,13.4,1505.2,319.4,-0.8,1.9,2471.439,13.29,0.016,90.0
2023-05-13T04:55:03,42.805,6.029,0.016,-0.002,-0.038,102.0,102.0,100.0,13.3,1505.2,343.7,-0.8,1.8,2471.431,13.29,0.016,97.1
2023-05-13T04:58:03,42.805,6.029,0.041,0.015,-0.018,101.0,101.0,100.0,13.4,1505.2,337.3,-0.8,1.8,2471.439,13.29,0.043,69.9
2023-05-13T05:01:03,42.805,6.029,0.005,0.006,-0.033,102.0,101.0,100.0,13.4,1505.2,327.5,-0.8,1.8,2471.381,13.29,0.007,39.8
2023-05-13T05:04:03,42.805,6.029,0.01,-0.007,-0.05,101.0,101.0,101.0,13.4,1505.2,343.4,-0.7,1.8,2471.395,13.29,0.012,125.0
2023-05-13T05:07:03,42.805,6.029,0.054,-0.008,-0.019,101.0,101.0,101.0,13.4,1505.2,333.4,-0.8,1.8,2471.446,13.29,0.054,98.4
2023-05-13T05:10:03,42.805,6.029,0.01,0.009,-0.019,101.0,102.0,101.0,13.3,1505.2,345.2,-0.8,1.8,2471.457,13.29,0.013,48.0
2023-05-13T05:13:03,42.805,6.029,0.006,0.034,0.006,101.0,102.0,100.0,13.3,1505.2,335.2,-0.8,1.8,2471.403,13.29,0.034,10.0
2023-05-13T05:16:03,42.805,6.029,0.033,-0.025,-0.053,101.0,101.0,100.0,13.4,1505.2,344.3,-0.8,1.8,2471.408,13.29,0.041,127.1
2023-05-13T05:19:03,42.805,6.029,0.025,0.007,-0.02,101.0,101.0,101.0,13.4,1505.2,332.3,-0.8,1.8,2471.437,13.29,0.025,74.4
2023-05-13T05:22:03,42.805,6.029,0.015,0.017,-0.003,101.0,100.0,101.0,13.4,1505.2,327.0,-0.8,1.8,2471.417,13.29,0.022,41.4
2023-05-13T05:25:03,42.805,6.029,0.002,0.021,-0.038,104.0,101.0,100.0,13.3,1505.2,332.5,-0.8,1.8,2471.402,13.29,0.021,5.4
2023-05-13T05:28:03,42.805,6.029,0.02,0.011,-0.037,100.0,101.0,101.0,13.4,1505.2,323.4,-0.8,1.8,2471.44,13.29,0.022,61.2
2023-05-13T05:31:03,42.805,6.029,0.032,0.004,-0.033,102.0,101.0,101.0,13.3,1505.2,336.0,-0.8,1.8,2471.426,13.29,0.032,82.9
2023-05-13T05:34:03,42.805,6.029,0.005,0.012,-0.03,102.0,102.0,99.0,13.4,1505.2,341.5,-0.8,1.8,2471.406,13.29,0.013,22.6
2023-05-13T05:37:03,42.805,6.029,0.019,-0.002,-0.039,102.0,101.0,100.0,13.3,1505.2,343.4,-0.8,1.8,2471.424,13.29,0.019,96.0
2023-05-13T05:40:03,42.805,6.029,0.035,0.007,-0.023,101.0,101.0,100.0,13.4,1505.2,336.0,-0.8,1.8,2471.386,13.29,0.035,78.7
2023-05-13T05:43:03,42.805,6.029,0.045,-0.002,-0.026,102.0,101.0,101.0,13.4,1505.2,332.1,-0.8,1.8,2471.407,13.29,0.045,92.5
2023-05-13T05:46:03,42.805,6.029,0.02,0.009,-0.028,101.0,102.0,100.0,13.4,1505.2,319.4,-0.8,1.8,2471.39,13.29,0.021,65.8
2023-05-13T05:49:03,42.805,6.029,0.028,0.005,-0.031,101.0,101.0,100.0,13.4,1505.2,333.0,-0.8,1.8,2471.387,13.29,0.028,79.9
2023-05-13T05:52:03,42.805,6.029,0.047,-0.015,-0.011,101.0,102.0,101.0,13.3,1505.2,341.8,-0.8,1.8,2471.401,13.29,0.049,107.7
2023-05-13T05:55:03,42.805,6.029,0.015,0.011,-0.019,101.0,101.0,101.0,13.3,1505.2,326.9,-0.8,1.8,2471.368,13.29,0.018,53.7
2023-05-13T05:58:03,42.805,6.029,0.013,0.011,-0.014,101.0,101.0,101.0,13.4,1505.2,346.2,-0.8,1.8,2471.378,13.29,0.017,49.8
2023-05-13T06:04:03,42.805,6.029,0.02,0.02,-0.017,102.0,100.0,101.0,13.3,1505.2,326.0,-0.7,1.8,2471.435,13.28,0.028,45.0
2023-05-13T06:07:03,42.805,6.029,0.027,-0.007,-0.052,104.0,101.0,100.0,13.4,1505.2,332.9,-0.8,1.8,2471.431,13.28,0.027,104.5
2023-05-13T06:10:03,42.805,6.029,0.008,-0.004,-0.039,102.0,102.0,100.0,13.4,1505.2,320.9,-0.8,1.9,2471.447,13.29,0.008,116.6
2023-05-13T06:13:03,42.805,6.029,0.0,0.031,-0.007,102.0,101.0,101.0,13.4,1505.2,328.4,-0.8,1.8,2471.397,13.29,0.03,0.0
2023-05-13T06:16:03,42.805,6.029,0.003,0.015,-0.002,101.0,101.0,101.0,13.4,1505.2,321.6,-0.8,1.8,2471.37,13.29,0.015,11.3
2023-05-13T06:19:03,42.805,6.029,0.019,0.019,-0.008,101.0,102.0,100.0,13.4,1505.2,332.1,-0.8,1.8,2471.406,13.29,0.026,45.0
2023-05-13T06:22:03,42.805,6.029,0.01,-0.001,-0.052,102.0,101.0,100.0,13.3,1505.2,330.9,-0.7,1.8,2471.402,13.29,0.01,95.7
2023-05-13T06:25:03,42.805,6.029,0.035,-0.011,-0.033,101.0,100.0,102.0,13.4,1505.2,336.5,-0.8,1.8,2471.393,13.29,0.036,107.4
2023-05-13T06:28:03,42.805,6.029,0.041,0.016,-0.015,102.0,100.0,100.0,13.3,1505.2,336.9,-0.7,1.9,2471.37,13.29,0.044,68.7
2023-05-13T06:31:03,42.805,6.029,0.035,0.006,-0.007,102.0,101.0,100.0,13.4,1505.2,346.5,-0.7,1.8,2471.368,13.29,0.035,80.3
2023-05-13T06:34:03,42.805,6.029,0.036,0.016,-0.006,103.0,102.0,100.0,13.4,1505.2,333.0,-0.8,1.8,2471.361,13.29,0.039,66.0
2023-05-13T06:37:03,42.805,6.029,0.03,-0.004,0.006,102.0,102.0,100.0,13.3,1505.2,344.8,-0.8,1.8,2471.374,13.29,0.03,97.6
2023-05-13T06:40:03,42.805,6.029,0.028,0.002,0.002,102.0,101.0,101.0,13.4,1505.2,336.8,-0.8,1.9,2471.349,13.29,0.028,85.9
2023-05-13T06:43:03,42.805,6.029,0.022,0.017,-0.01,103.0,102.0,100.0,13.4,1505.2,343.8,-0.8,1.8,2471.387,13.29,0.027,52.3
2023-05-13T06:46:03,42.805,6.029,0.022,0.035,0.001,103.0,101.0,100.0,13.3,1505.2,337.9,-0.7,1.8,2471.341,13.29,0.041,32.2
2023-05-13T06:49:03,42.805,6.029,0.03,-0.004,-0.034,102.0,102.0,100.0,13.4,1505.2,344.5,-0.8,1.8,2471.357,13.29,0.03,97.6
2023-05-13T06:52:03,42.805,6.029,0.038,-0.005,0.0,101.0,101.0,101.0,13.3,1505.2,334.9,-0.8,1.8,2471.361,13.29,0.038,97.5
2023-05-13T06:55:03,42.805,6.029,0.018,0.014,-0.035,102.0,102.0,100.0,13.4,1505.2,342.3,-0.8,1.8,2471.347,13.29,0.022,52.1
2023-05-13T06:58:03,42.805,6.029,0.043,0.003,-0.032,101.0,102.0,100.0,13.3,1505.2,328.8,-0.8,1.8,2471.33,13.29,0.043,86.0
2023-05-13T07:04:03,42.805,6.029,0.02,0.003,-0.018,101.0,101.0,101.0,13.3,1505.2,325.2,-0.8,1.8,2471.39,13.28,0.02,81.5
2023-05-13T07:07:03,42.805,6.029,0.024,-0.013,-0.028,101.0,101.0,100.0,13.4,1505.2,330.5,-0.8,1.8,2471.393,13.28,0.027,118.4
2023-05-13T07:10:03,42.805,6.029,0.034,-0.023,-0.066,101.0,100.0,100.0,13.3,1505.2,340.8,-0.7,1.8,2471.409,13.28,0.041,124.1
2023-05-13T07:13:03,42.805,6.029,0.013,0.0,-0.021,101.0,102.0,100.0,13.4,1505.2,323.3,-0.8,1.8,2471.376,13.29,0.013,90.0
2023-05-13T07:16:03,42.805,6.029,0.021,0.017,-0.001,102.0,100.0,100.0,13.4,1505.2,325.7,-0.8,1.8,2471.355,13.29,0.027,51.0
2023-05-13T07:19:03,42.805,6.029,0.012,0.005,-0.021,100.0,102.0,101.0,13.4,1505.2,331.3,-0.7,1.8,2471.394,13.29,0.013,67.4
2023-05-13T07:22:03,42.805,6.029,0.013,-0.001,-0.033,101.0,101.0,101.0,13.3,1505.2,337.6,-0.7,1.8,2471.326,13.29,0.013,94.4
2023-05-13T07:25:03,42.805,6.029,0.029,-0.004,-0.061,101.0,101.0,100.0,13.3,1505.2,316.9,-0.7,1.8,2471.339,13.29,0.029,97.8
2023-05-13T07:28:03,42.805,6.029,0.017,0.011,-0.027,101.0,101.0,100.0,13.4,1505.2,322.7,-0.7,1.8,2471.351,13.29,0.02,57.1
2023-05-13T07:31:03,42.805,6.029,0.016,0.017,0.003,101.0,101.0,100.0,13.4,1505.2,324.3,-0.8,1.8,2471.355,13.29,0.023,43.3
2023-05-13T07:34:03,42.805,6.029,0.006,0.006,-0.038,101.0,101.0,100.0,13.4,1505.2,334.3,-0.8,1.8,2471.343,13.29,0.008,45.0
2023-05-13T07:37:03,42.805,6.029,0.025,0.005,-0.05,101.0,102.0,101.0,13.3,1505.2,323.1,-0.8,1.8,2471.338,13.29,0.025,78.7
2023-05-13T07:40:03,42.805,6.029,0.023,-0.003,-0.027,102.0,101.0,100.0,13.4,1505.2,343.6,-0.8,1.8,2471.312,13.29,0.023,97.4
2023-05-13T07:43:03,42.805,6.029,0.014,0.019,-0.022,102.0,102.0,100.0,13.3,1505.2,318.4,-0.7,1.8,2471.313,13.29,0.023,36.4
2023-05-13T07:46:03,42.805,6.029,0.044,0.013,0.002,101.0,101.0,99.0,13.3,1505.2,326.3,-0.8,1.8,2471.341,13.29,0.045,73.5
2023-05-13T07:49:03,42.805,6.029,0.016,0.011,-0.032,101.0,103.0,101.0,13.4,1505.2,336.5,-0.8,1.8,2471.301,13.29,0.019,55.5
2023-05-13T07:52:03,42.805,6.029,0.026,0.0,-0.027,101.0,102.0,100.0,13.3,1505.2,340.2,-0.7,1.8,2471.299,13.29,0.026,90.0
2023-05-13T07:55:03,42.805,6.029,0.017,0.009,0.005,101.0,101.0,101.0,13.4,1505.2,338.4,-0.8,1.8,2471.319,13.29,0.019,62.1
2023-05-13T07:58:03,42.805,6.029,0.005,0.016,-0.008,102.0,102.0,100.0,13.3,1505.2,326.0,-0.7,1.8,2471.354,13.29,0.016,17.4
2023-05-13T08:04:03,42.805,6.029,0.021,0.002,-0.046,102.0,102.0,101.0,13.4,1505.2,344.0,-0.8,1.8,2471.364,13.28,0.021,84.6
2023-05-13T08:07:03,42.805,6.029,0.015,-0.002,-0.017,101.0,102.0,101.0,13.3,1505.2,321.7,-0.8,1.8,2471.369,13.28,0.015,97.6
2023-05-13T08:10:03,42.805,6.029,0.036,0.0,-0.035,101.0,103.0,101.0,13.4,1505.2,340.2,-0.8,1.9,2471.342,13.29,0.036,90.0
2023-05-13T08:13:03,42.805,6.029,0.017,0.026,-0.029,102.0,102.0,101.0,13.4,1505.2,328.2,-0.8,1.8,2471.344,13.29,0.031,33.2
2023-05-13T08:16:03,42.805,6.029,0.016,0.006,-0.028,101.0,101.0,101.0,13.4,1505.2,339.0,-0.8,1.8,2471.337,13.29,0.017,69.4
2023-05-13T08:19:03,42.805,6.029,0.029,-0.003,-0.019,102.0,102.0,100.0,13.4,1505.2,346.5,-0.8,1.8,2471.325,13.29,0.029,95.9
2023-05-13T08:22:03,42.805,6.029,0.058,0.0,-0.018,101.0,101.0,101.0,13.3,1505.2,320.0,-0.7,1.8,2471.328,13.29,0.057,90.0
2023-05-13T08:25:03,42.805,6.029,0.043,0.004,-0.02,101.0,101.0,100.0,13.3,1505.2,345.1,-0.8,1.8,2471.319,13.29,0.043,84.7
2023-05-13T08:28:03,42.805,6.029,0.022,0.01,-0.008,101.0,101.0,100.0,13.4,1505.2,335.4,-0.8,1.8,2471.302,13.29,0.024,65.6
2023-05-13T08:31:03,42.805,6.029,0.024,-0.006,-0.02,100.0,101.0,100.0,13.4,1505.2,345.9,-0.7,1.8,2471.332,13.29,0.024,104.0
2023-05-13T08:34:03,42.805,6.029,0.042,0.006,-0.028,101.0,101.0,101.0,13.3,1505.2,330.4,-0.8,1.8,2471.361,13.29,0.042,81.9
2023-05-13T08:37:03,42.805,6.029,-0.019,0.023,-0.039,102.0,102.0,100.0,13.4,1505.2,336.9,-0.8,1.8,2471.311,13.29,0.029,320.4
2023-05-13T08:40:03,42.805,6.029,0.047,-0.001,-0.016,101.0,101.0,100.0,13.4,1505.2,342.8,-0.7,1.8,2471.314,13.29,0.047,91.2
2023-05-13T08:43:03,42.805,6.029,-0.005,0.0,-0.028,102.0,102.0,100.0,13.3,1505.2,334.8,-0.8,1.8,2471.328,13.29,0.005,270.0
2023-05-13T08:46:03,42.805,6.029,0.001,-0.002,-0.087,100.0,103.0,100.0,13.4,1505.2,329.7,-0.8,1.8,2471.357,13.29,0.002,153.4
2023-05-13T08:49:03,42.805,6.029,0.024,0.019,-0.025,101.0,101.0,102.0,13.3,1505.2,323.6,-0.8,1.8,2471.316,13.29,0.03,51.6
2023-05-13T08:52:03,42.805,6.029,0.02,-0.009,-0.027,102.0,101.0,100.0,13.4,1505.2,336.9,-0.8,1.8,2471.31,13.29,0.021,114.2
2023-05-13T08:55:03,42.805,6.029,0.036,0.01,-0.003,101.0,102.0,101.0,13.4,1505.2,341.5,-0.8,1.8,2471.319,13.29,0.037,74.5
2023-05-13T08:58:03,42.805,6.029,0.007,0.029,-0.03,102.0,102.0,100.0,13.3,1505.2,337.3,-0.8,1.8,2471.317,13.29,0.029,13.6
2023-05-13T09:04:03,42.805,6.029,0.032,0.017,0.01,101.0,101.0,101.0,13.4,1505.2,328.5,-0.8,1.8,2471.359,13.28,0.036,62.0
2023-05-13T09:07:03,42.805,6.029,0.044,0.01,-0.011,102.0,102.0,101.0,13.4,1505.2,323.3,-0.8,1.8,2471.348,13.28,0.045,77.2
2023-05-13T09:10:03,42.805,6.029,0.028,0.007,-0.002,102.0,103.0,100.0,13.4,1505.2,342.5,-0.8,1.8,2471.352,13.28,0.028,76.0
2023-05-13T09:13:03,42.805,6.029,0.003,0.028,-0.012,101.0,102.0,101.0,13.4,1505.2,330.4,-0.8,1.8,2471.312,13.29,0.028,6.1
2023-05-13T09:16:03,42.805,6.029,0.05,-0.003,-0.049,101.0,102.0,101.0,13.4,1505.2,323.5,-0.8,1.8,2471.319,13.29,0.05,93.4
2023-05-13T09:19:03,42.805,6.029,0.042,0.008,-0.002,102.0,102.0,100.0,13.4,1505.2,322.2,-0.8,1.8,2471.327,13.29,0.042,79.2
2023-05-13T09:22:03,42.805,6.029,0.027,-0.001,-0.046,103.0,100.0,100.0,13.3,1505.2,337.0,-0.8,1.8,2471.295,13.29,0.027,92.1
2023-05-13T09:25:03,42.805,6.029,0.024,0.01,-0.007,103.0,99.0,101.0,13.4,1505.2,345.6,-0.8,1.8,2471.296,13.29,0.026,67.4
2023-05-13T09:28:03,42.805,6.029,0.001,0.01,-0.038,102.0,101.0,102.0,13.3,1505.2,332.9,-0.8,1.8,2471.359,13.29,0.01,5.7
2023-05-13T09:31:03,42.805,6.029,-0.001,-0.015,-0.062,102.0,101.0,100.0,13.4,1505.2,339.9,-0.8,1.8,2471.329,13.29,0.015,183.8
2023-05-13T09:34:03,42.805,6.029,0.011,0.007,-0.04,100.0,104.0,101.0,13.3,1505.2,323.3,-0.8,1.8,2471.329,13.29,0.013,57.5
2023-05-13T09:37:03,42.805,6.029,0.047,-0.023,-0.021,102.0,102.0,100.0,13.4,1505.2,334.6,-0.8,1.8,2471.322,13.29,0.052,116.1
2023-05-13T09:40:03,42.805,6.029,0.031,-0.006,-0.018,101.0,101.0,101.0,13.4,1505.2,334.8,-0.8,1.8,2471.268,13.29,0.031,101.0
2023-05-13T09:43:03,42.805,6.029,0.033,0.002,-0.021,102.0,102.0,100.0,13.4,1505.2,344.3,-0.8,1.8,2471.285,13.29,0.033,86.5
2023-05-13T09:46:03,42.805,6.029,0.013,0.0,-0.01,100.0,102.0,101.0,13.4,1505.2,327.2,-0.8,1.8,2471.266,13.29,0.013,90.0
2023-05-13T09:49:03,42.805,6.029,0.032,-0.002,-0.049,100.0,104.0,100.0,13.3,1505.2,327.4,-0.8,1.8,2471.317,13.29,0.032,93.6
2023-05-13T09:52:03,42.805,6.029,0.02,-0.008,-0.022,101.0,100.0,101.0,13.4,1505.2,341.5,-0.8,1.8,2471.299,13.29,0.021,111.8
2023-05-13T09:55:03,42.805,6.029,0.033,0.002,-0.026,102.0,103.0,100.0,13.4,1505.2,329.8,-0.8,1.8,2471.321,13.29,0.033,86.5
2023-05-13T09:58:03,42.805,6.029,0.033,0.025,-0.012,101.0,101.0,100.0,13.3,1505.2,324.1,-0.7,1.8,2471.316,13.29,0.041,52.9